This is the latest recevied weather packets stored in our database for station/object BRIVER. If no packets are shown the sender has not sent any weather packets the latest 10 day(s).
| Time | Temp. | Humidity | Pressure | Rain* | Wind** | Luminosity | Snow |
|---|---|---|---|---|---|---|---|
| 1777845033 | 23.33° C | 35% | 1007.8 hPa | 0 mm | - | - | - |
| 1777844733 | 23.89° C | 34% | 1007.9 hPa | 0 mm | - | - | - |
| 1777844614 | 23.89° C | 33% | 1007.9 hPa | 0 mm | - | - | - |
| 1777844433 | 23.89° C | 31% | 1007.8 hPa | 0 mm | - | - | - |
| 1777844133 | 23.89° C | 32% | 1007.9 hPa | 0 mm | - | - | - |
| 1777844074 | 23.89° C | 31% | 1008 hPa | 0 mm | - | - | - |
| 1777843833 | 23.89° C | 31% | 1008 hPa | 0 mm | - | - | - |
| 1777843533 | 23.89° C | 30% | 1008 hPa | 0 mm | - | - | - |
| 1777843233 | 23.89° C | 32% | 1008 hPa | 0 mm | - | - | - |
| 1777842933 | 25° C | 29% | 1008.2 hPa | 0 mm | - | - | - |
| 1777842633 | 25° C | 34% | 1008.2 hPa | 0 mm | - | - | - |
| 1777842333 | 25° C | 30% | 1008.3 hPa | 0 mm | - | - | - |
| 1777842033 | 25.56° C | 33% | 1008.3 hPa | 0 mm | - | - | - |
| 1777841915 | 25.56° C | 31% | 1008.3 hPa | 0 mm | - | - | - |
| 1777841733 | 25.56° C | 30% | 1008.4 hPa | 0 mm | - | - | - |
| 1777841433 | 25° C | 33% | 1008.5 hPa | 0 mm | - | - | - |
| 1777841375 | 25° C | 36% | 1008.5 hPa | 0 mm | - | - | - |
| 1777841133 | 24.44° C | 33% | 1008.5 hPa | 0 mm | - | - | - |
| 1777840833 | 23.89° C | 34% | 1008.7 hPa | 0 mm | - | - | - |
| 1777840533 | 23.33° C | 33% | 1008.7 hPa | 0 mm | - | - | - |
| 1777840296 | 23.33° C | 32% | 1008.8 hPa | 0 mm | - | - | - |
| 1777840233 | 23.33° C | 35% | 1008.8 hPa | 0 mm | - | - | - |
| 1777839933 | 22.78° C | 33% | 1008.8 hPa | 0 mm | - | - | - |
| 1777839633 | 22.78° C | 31% | 1008.9 hPa | 0 mm | - | - | - |
| 1777839333 | 22.78° C | 29% | 1008.9 hPa | 0 mm | - | - | - |
* Rain latest hour (hover to see other rain measurements)
** Current wind speed in m/s (hover to see current wind gust speed)